Location: Newark
(43.0000°N, 1.6781°W)
Time: 09:33:52
(UTC+00:00)

Explorer 7 - Pass Details

Date: 28 April 2021
Orbit: 484 x 677 km, 50.3° (Epoch: 07 May)

Event Time Altitude Azimuth Distance (km) Brightness Sun altitude
Rises 19:27:49 0° 285° (WNW) 2,609 12.5 -4.8°
Reaches altitude 10° 19:30:11 10° 297° (WNW) 1,750 11.3 -5.2°
Maximum altitude 19:33:40 29° 358° (N) 1,013 8.5 -5.7°
Drops below altitude 10° 19:37:20 10° 60° (ENE) 1,846 9.2 -6.3°
Sets 19:39:54 0° 71° (ENE) 2,782 10.0 -6.8°
